User: anonymous   Login
Location: Unspecified
(0.0000°N, 0.0000°E)
Time: 15:28:07
(UTC+00:00)
Language:

Kosmos-1333 - Orbit

View from above orbital plane
View from above orbital plane
View from above satellite
View from above satellite

Ground track
Ground track

The orbit data is extracted from the following two-line orbital elements,

1 13033U 82003A   17229.45030981  .00000051  00000-0  38567-4 0  9993
2 13033  82.9418  28.0955 0032783 159.6944 228.2591 13.73196220783735
Epoch (UTC): 17 August 2017 10:48:26
Eccentricity: 0.0032783
inclination: 82.9418°
perigee height: 964 km
apogee height: 1012 km
right ascension of ascending node: 28.0955°
argument of perigee: 159.6944°
revolutions per day: 13.73196220
mean anomaly at epoch: 228.2591°
orbit number at epoch: 78373

The dashed part of the orbit path shows where the satellite is in the earth's shadow,  

DLR